Currently 75°F in Simi Valley, California, USA
75°F
78°F / 65°F
24 mph NE
0.01"
Tuesday, December 12, 2017 3:53 PM PST

Simi Valley, California Climate Summary
Typical June Day

Normal High:    82.1°F (27.8°C)
Normal Low:    57.3°F (14.1°C)
Average:    69.1°F (20.6°C)

Hour    Temperature    Wind Speed    Humidity
12:00 AM    63°F (17°C)    2 mph    71%
1:00 AM    62°F (16°C)    1 mph    72%
2:00 AM    61°F (16°C)    1 mph    74%
3:00 AM    60°F (16°C)    1 mph    75%
4:00 AM    59°F (15°C)    2 mph    76%
5:00 AM    59°F (15°C)    2 mph    77%
6:00 AM    58°F (15°C)    2 mph    78%
7:00 AM    60°F (15°C)    1 mph    79%
8:00 AM    64°F (18°C)    2 mph    75%
9:00 AM    67°F (20°C)    2 mph    69%
10:00 AM    72°F (22°C)    3 mph    61%
11:00 AM    75°F (24°C)    5 mph    55%
12:00 PM    78°F (26°C)    5 mph    50%
1:00 PM    80°F (27°C)    7 mph    48%
2:00 PM    80°F (27°C)    7 mph    47%
3:00 PM    80°F (27°C)    7 mph    47%
4:00 PM    80°F (27°C)    7 mph    47%
5:00 PM    79°F (26°C)    7 mph    48%
6:00 PM    77°F (25°C)    6 mph    50%
7:00 PM    75°F (24°C)    5 mph    53%
8:00 PM    71°F (22°C)    4 mph    60%
9:00 PM    68°F (20°C)    2 mph    65%
10:00 PM    66°F (19°C)    1 mph    68%
11:00 PM    64°F (18°C)    1 mph    69%
 

The Simi Valley, California weather pages are a service of WeatherCurrents.
Copyright ©Tue Dec 12 15:53:48 PST 2017  WeatherCurrents. All rights reserved. - Submit questions and comments - Privacy Policy